* Astronomy

Members Login
Post Info TOPIC: Comet C/2010 G3 (WISE)


L

Posts: 131433
Date:
Comet C/2010 G3 (WISE)
Permalink  
 


Orbital elements:
C/2010 G3 (WISE)
T 2010 Sept. 26.597 TT MPC
q 4.66346 (2000.0) P Q
Peri. 98.838 -0.333606 -0.681095
Node 316.408 -0.488599 +0.716199
e 1.0 Incl. 109.045 +0.806212 +0.152214
From 23 observations 2010 Apr. 14-16.

MPEC 2010 - H04


Comet C/2010 G3 (WISE) was discovered by the WISE satellite on the 14th April, 2010.
The preliminary orbital elements of the comet indicate a perihelion passage on the 26th September, 2010, at a distance of 4.66 AU from the Sun.

__________________
«First  <  1 2 | Page of 2  sorted by
Quick Reply

Please log in to post quick replies.



Create your own FREE Forum
Report Abuse
Powered by ActiveBoard